CAPE
1002 1002 862 734 749 642 659 680 644 538 332 196 0 0 0 0 0 0 0 0 0 0 0 0 0 0 0 0 0 0 0 0 0 0 0 0 0 0 0 0 0 0
1066 1044 897 716 758 716 747 709 642 444 279 218 195 0 0 0 0 0 0 0 0 0 0 0 0 0 0 0 0 0 0 0 0 0 0 0 0 0 0 0 0 0
1082 1037 870 718 774 787 793 728 555 397 293 260 225 24 0 0 0 0 0 0 0 0 0 0 0 0 0 0 0 0 0 0 0 0 0 0 0 0 0 0 0 0
946 890 759 813 838 852 801 663 496 344 285 282 234 148 0 0 0 0 0 0 0 0 0 0 0 0 0 0 0 0 0 0 0 0 0 0 0 0 0 0 0 0
825 805 851 899 907 881 753 599 444 342 342 325 248 176 0 0 0 0 0 0 0 0 0 0 0 0 0 0 0 0 0 0 0 0 0 0 0 0 0 0 0 0
917 898 942 979 969 848 695 565 421 392 394 302 240 208 0 0 0 0 0 0 0 0 0 0 0 0 0 0 0 0 0 0 0 0 0 0 0 0 0 0 0 0
930 935 985 984 892 727 622 498 444 414 365 250 189 238 3 0 0 0 0 0 0 0 0 0 0 0 0 0 0 0 0 0 0 0 0 0 0 0 0 0 0 0
828 934 972 909 779 686 554 433 372 358 254 185 152 212 0 0 0 0 0 0 0 0 0 0 0 0 0 0 0 0 0 0 0 0 0 0 0 0 0 0 0 0
784 857 824 760 706 628 506 399 370 283 226 165 0 207 0 0 0 0 0 0 0 0 0 0 0 0 0 0 0 0 0 0 0 0 0 0 0 0 0 0 0 0
758 694 719 705 628 540 452 370 336 260 190 39 10 217 192 0 0 0 0 0 0 0 0 0 0 0 0 0 0 0 0 0 0 0 0 0 0 0 0 0 0 0
724 687 685 632 568 485 443 398 303 240 76 20 128 257 167 0 0 0 0 0 0 0 0 0 0 0 0 0 0 0 0 0 0 0 0 0 0 0 0 0 0 0
682 681 646 614 580 560 489 391 313 233 52 58 271 260 171 0 0 0 0 0 0 0 0 0 0 0 0 0 0 0 0 0 0 0 0 0 0 0 0 0 0 0
690 669 638 634 612 548 478 405 331 241 21 228 296 227 50 0 0 0 0 0 0 0 0 0 0 0 0 0 0 0 0 0 0 0 0 0 0 0 0 0 0 0
708 689 721 692 568 504 472 420 324 247 206 261 280 179 0 0 0 0 0 0 0 0 0 0 0 0 0 0 0 0 0 0 0 0 0 0 0 0 0 0 0 0
778 705 611 528 486 443 422 394 300 236 217 275 247 155 0 0 0 0 0 0 0 0 0 0 0 0 0 0 0 0 0 0 0 0 0 0 0 0 0 0 0 0
736 625 530 490 467 490 432 358 282 233 226 257 202 0 0 0 0 0 0 0 0 0 0 0 0 0 0 0 0 0 0 0 0 0 0 0 0 0 0 0 0 0
744 628 536 567 540 438 420 354 302 247 239 224 118 109 0 0 0 0 0 0 0 0 0 0 0 0 0 0 0 0 0 0 0 0 0 0 0 0 0 0 0 0
720 640 459 489 530 496 426 386 362 267 242 208 63 157 40 0 0 0 0 0 0 0 0 0 0 0 0 0 0 0 0 0 0 0 0 0 0 0 0 0 0 0
671 555 419 442 454 424 431 442 382 277 275 213 192 184 170 0 0 9 0 0 4 1 0 0 0 0 0 0 0 0 0 0 0 0 0 0 0 0 0 0 0 0
643 539 364 348 388 456 494 430 290 296 296 282 262 259 217 142 57 0 0 15 10 4 0 0 0 0 0 0 0 0 0 0 0 0 0 0 0 0 0 0 0 0
673 508 344 321 423 536 436 288 262 297 306 310 309 273 211 173 0 0 7 42 44 11 0 0 0 0 0 0 0 0 0 0 0 0 0 0 0 0 0 0 0 0
627 456 292 390 509 392 275 269 266 286 304 287 255 218 208 116 0 37 76 92 54 10 0 0 0 0 0 0 0 0 0 0 0 0 0 0 0 0 0 0 0 0
516 422 387 552 458 247 239 246 198 104 103 227 217 196 113 6 72 122 116 97 64 10 0 0 0 0 0 0 0 0 0 0 0 0 0 0 0 0 0 0 0 0
443 439 540 590 281 110 49 64 27 131 63 5 135 85 22 100 168 161 117 59 14 6 0 0 0 0 0 0 0 0 0 0 0 0 0 0 0 0 0 0 0 0
449 537 656 581 326 116 106 108 107 104 38 1 1 55 150 182 198 177 117 35 5 0 0 0 0 0 0 0 0 0 0 0 0 0 0 0 0 0 0 0 0 0
516 619 684 426 143 167 188 131 107 110 53 18 65 176 234 239 222 167 71 41 4 0 0 0 0 0 0 0 0 0 0 0 0 0 0 0 0 0 0 0 0 0
Wind_Speed
17 17 15 17 17 16 15 14 13 13 13 12 nan nan nan nan nan nan nan nan nan nan nan nan nan nan nan nan nan nan nan nan nan nan nan nan nan nan nan nan nan nan
17 17 16 19 19 17 16 15 14 14 14 14 13 nan nan nan nan nan nan nan nan nan nan nan nan nan nan nan nan nan nan nan nan nan nan nan nan nan nan nan nan nan
17 16 17 19 18 16 15 15 14 14 15 15 16 nan nan nan nan nan nan nan nan nan nan nan nan nan nan nan nan nan nan nan nan nan nan nan nan nan nan nan nan nan
16 16 18 20 19 16 15 15 14 15 15 17 16 14 nan nan nan nan nan nan nan nan nan nan nan nan nan nan nan nan nan nan nan nan nan nan nan nan nan nan nan nan
18 20 20 20 18 16 14 13 13 13 16 17 17 15 nan nan nan nan nan nan nan nan nan nan nan nan nan nan nan nan nan nan nan nan nan nan nan nan nan nan nan nan
20 21 20 18 16 14 13 12 12 15 17 18 16 16 nan nan nan nan nan nan nan nan nan nan nan nan nan nan nan nan nan nan nan nan nan nan nan nan nan nan nan nan
20 20 20 18 16 14 14 14 15 17 18 18 18 17 nan nan nan nan nan nan nan nan nan nan nan nan nan nan nan nan nan nan nan nan nan nan nan nan nan nan nan nan
21 20 19 18 16 15 16 16 17 19 19 19 20 17 nan nan nan nan nan nan nan nan nan nan nan nan nan nan nan nan nan nan nan nan nan nan nan nan nan nan nan nan
21 20 19 18 18 17 17 18 19 20 20 20 nan 19 nan nan nan nan nan nan nan nan nan nan nan nan nan nan nan nan nan nan nan nan nan nan nan nan nan nan nan nan
20 19 19 19 20 20 20 20 21 22 21 nan nan 20 22 nan nan nan nan nan nan nan nan nan nan nan nan nan nan nan nan nan nan nan nan nan nan nan nan nan nan nan
20 19 20 22 23 22 21 21 22 23 nan nan 22 23 22 nan nan nan nan nan nan nan nan nan nan nan nan nan nan nan nan nan nan nan nan nan nan nan nan nan nan nan
21 21 22 24 25 24 22 22 23 24 nan nan 23 24 23 nan nan nan nan nan nan nan nan nan nan nan nan nan nan nan nan nan nan nan nan nan nan nan nan nan nan nan
21 21 22 24 24 23 22 23 24 24 nan 24 23 25 nan nan nan nan nan nan nan nan nan nan nan nan nan nan nan nan nan nan nan nan nan nan nan nan nan nan nan nan
22 22 23 24 24 23 24 25 26 25 25 25 25 25 nan nan nan nan nan nan nan nan nan nan nan nan nan nan nan nan nan nan nan nan nan nan nan nan nan nan nan nan
25 24 23 24 23 23 25 26 26 26 26 26 26 25 nan nan nan nan nan nan nan nan nan nan nan nan nan nan nan nan nan nan nan nan nan nan nan nan nan nan nan nan
26 25 24 24 23 24 25 26 26 26 27 27 27 nan nan nan nan nan nan nan nan nan nan nan nan nan nan nan nan nan nan nan nan nan nan nan nan nan nan nan nan nan
27 25 24 24 24 25 26 26 27 27 28 29 28 27 nan nan nan nan nan nan nan nan nan nan nan nan nan nan nan nan nan nan nan nan nan nan nan nan nan nan nan nan
26 25 24 23 24 25 25 26 27 28 29 29 nan 28 nan nan nan nan nan nan nan nan nan nan nan nan nan nan nan nan nan nan nan nan nan nan nan nan nan nan nan nan
26 25 24 23 24 25 26 27 29 29 29 29 28 28 28 nan nan nan nan nan nan nan nan nan nan nan nan nan nan nan nan nan nan nan nan nan nan nan nan nan nan nan
26 25 24 23 24 26 28 29 30 29 28 28 28 28 28 29 nan nan nan nan nan nan nan nan nan nan nan nan nan nan nan nan nan nan nan nan nan nan nan nan nan nan
25 24 24 25 26 28 29 30 30 29 28 27 28 28 28 27 nan nan nan nan nan nan nan nan nan nan nan nan nan nan nan nan nan nan nan nan nan nan nan nan nan nan
26 26 27 29 30 30 30 29 29 28 28 27 29 29 27 26 nan nan nan nan nan nan nan nan nan nan nan nan nan nan nan nan nan nan nan nan nan nan nan nan nan nan
29 30 31 34 35 35 34 32 31 29 27 26 29 27 25 nan nan 21 22 nan nan nan nan nan nan nan nan nan nan nan nan nan nan nan nan nan nan nan nan nan nan nan
34 36 37 39 40 38 nan nan nan 26 nan nan 25 nan nan nan 22 23 22 nan nan nan nan nan nan nan nan nan nan nan nan nan nan nan nan nan nan nan nan nan nan nan
38 38 37 37 35 34 32 32 30 26 nan nan nan nan 23 22 22 24 24 nan nan nan nan nan nan nan nan nan nan nan nan nan nan nan nan nan nan nan nan nan nan nan
38 37 35 36 36 34 34 35 33 31 nan nan nan 23 24 23 23 24 nan nan nan nan nan nan nan nan nan nan nan nan nan nan nan nan nan nan nan nan nan nan nan nan
Wind_Direction
254 248 252 253 255 253 247 242 239 245 241 245 nan nan nan nan nan nan nan nan nan nan nan nan nan nan nan nan nan nan nan nan nan nan nan nan nan nan nan nan nan nan
250 251 248 249 250 245 238 241 246 243 240 243 251 nan nan nan nan nan nan nan nan nan nan nan nan nan nan nan nan nan nan nan nan nan nan nan nan nan nan nan nan nan
254 253 254 259 256 249 245 241 241 236 238 245 250 nan nan nan nan nan nan nan nan nan nan nan nan nan nan nan nan nan nan nan nan nan nan nan nan nan nan nan nan nan
256 253 254 250 247 249 245 244 235 234 240 248 250 249 nan nan nan nan nan nan nan nan nan nan nan nan nan nan nan nan nan nan nan nan nan nan nan nan nan nan nan nan
252 251 248 245 242 245 242 243 244 244 248 250 249 250 nan nan nan nan nan nan nan nan nan nan nan nan nan nan nan nan nan nan nan nan nan nan nan nan nan nan nan nan
247 251 251 250 249 248 240 244 248 249 251 252 252 251 nan nan nan nan nan nan nan nan nan nan nan nan nan nan nan nan nan nan nan nan nan nan nan nan nan nan nan nan
261 258 255 249 246 239 245 248 244 245 248 250 249 253 nan nan nan nan nan nan nan nan nan nan nan nan nan nan nan nan nan nan nan nan nan nan nan nan nan nan nan nan
259 253 250 244 243 241 251 251 245 246 249 249 252 254 nan nan nan nan nan nan nan nan nan nan nan nan nan nan nan nan nan nan nan nan nan nan nan nan nan nan nan nan
253 250 245 242 244 246 253 248 245 247 247 251 nan 255 nan nan nan nan nan nan nan nan nan nan nan nan nan nan nan nan nan nan nan nan nan nan nan nan nan nan nan nan
247 244 243 241 245 249 252 245 244 244 245 nan nan 256 259 nan nan nan nan nan nan nan nan nan nan nan nan nan nan nan nan nan nan nan nan nan nan nan nan nan nan nan
247 245 245 246 249 249 249 244 243 244 nan nan 255 256 259 nan nan nan nan nan nan nan nan nan nan nan nan nan nan nan nan nan nan nan nan nan nan nan nan nan nan nan
253 250 251 251 251 250 248 243 244 245 nan nan 257 260 259 nan nan nan nan nan nan nan nan nan nan nan nan nan nan nan nan nan nan nan nan nan nan nan nan nan nan nan
260 257 254 252 251 251 246 242 243 247 nan 255 257 263 nan nan nan nan nan nan nan nan nan nan nan nan nan nan nan nan nan nan nan nan nan nan nan nan nan nan nan nan
261 259 254 249 248 248 245 244 246 248 251 254 258 263 nan nan nan nan nan nan nan nan nan nan nan nan nan nan nan nan nan nan nan nan nan nan nan nan nan nan nan nan
263 258 252 248 247 247 246 246 247 249 252 255 257 260 nan nan nan nan nan nan nan nan nan nan nan nan nan nan nan nan nan nan nan nan nan nan nan nan nan nan nan nan
263 259 254 248 248 247 247 248 249 250 253 256 258 nan nan nan nan nan nan nan nan nan nan nan nan nan nan nan nan nan nan nan nan nan nan nan nan nan nan nan nan nan
260 257 252 249 248 247 248 250 250 250 253 256 259 262 nan nan nan nan nan nan nan nan nan nan nan nan nan nan nan nan nan nan nan nan nan nan nan nan nan nan nan nan
258 254 248 246 246 250 250 249 250 252 255 258 nan 263 nan nan nan nan nan nan nan nan nan nan nan nan nan nan nan nan nan nan nan nan nan nan nan nan nan nan nan nan
255 250 244 242 243 248 249 250 252 254 257 261 264 264 267 nan nan nan nan nan nan nan nan nan nan nan nan nan nan nan nan nan nan nan nan nan nan nan nan nan nan nan
250 245 244 245 247 249 251 254 257 260 261 262 265 267 271 274 nan nan nan nan nan nan nan nan nan nan nan nan nan nan nan nan nan nan nan nan nan nan nan nan nan nan
245 245 247 248 248 250 253 258 262 264 266 267 272 277 281 282 nan nan nan nan nan nan nan nan nan nan nan nan nan nan nan nan nan nan nan nan nan nan nan nan nan nan
244 243 244 246 248 250 255 259 263 269 271 269 270 268 266 266 nan nan nan nan nan nan nan nan nan nan nan nan nan nan nan nan nan nan nan nan nan nan nan nan nan nan
242 245 246 247 247 248 247 252 257 259 263 268 272 271 271 nan nan 272 277 nan nan nan nan nan nan nan nan nan nan nan nan nan nan nan nan nan nan nan nan nan nan nan
244 248 250 252 254 256 nan nan nan 255 nan nan 274 nan nan nan 270 272 275 nan nan nan nan nan nan nan nan nan nan nan nan nan nan nan nan nan nan nan nan nan nan nan
250 253 258 266 275 275 274 274 272 270 nan nan nan nan 266 266 268 274 276 nan nan nan nan nan nan nan nan nan nan nan nan nan nan nan nan nan nan nan nan nan nan nan
252 258 262 267 267 263 259 261 262 262 nan nan nan 264 268 267 270 276 nan nan nan nan nan nan nan nan nan nan nan nan nan nan nan nan nan nan nan nan nan nan nan nan